ProjectID,Date,Electric Generation,Electric Utility Import,Facility Electric Load
,YYYY-MM-DD,kW,kW,kW
359,2016-07-11,96.65375,,96.65375
359,2016-07-12,84.60320833333334,,84.60320833333334
359,2016-07-13,76.39279166666667,,76.39279166666667
359,2016-07-14,86.32958333333333,,86.32958333333333
359,2016-07-15,81.61733333333333,,81.61733333333333
359,2016-07-16,72.54625,,72.54625
359,2016-07-17,92.18425,,92.18425
359,2016-07-18,55.8315,,55.8315
359,2016-07-19,82.54504166666666,,82.54504166666666
359,2016-07-20,97.57045833333332,,97.57045833333332
359,2016-07-21,100.746875,,100.746875
359,2016-07-22,78.20125,,78.20125
359,2016-07-23,101.53133333333334,,101.53133333333334
359,2016-07-24,84.24883333333334,,84.24883333333334
359,2016-07-25,52.60233333333333,,52.60233333333333
359,2016-07-26,91.74616666666667,,91.74616666666667
359,2016-07-27,99.61079166666667,,99.61079166666667
359,2016-07-28,70.52425000000001,,70.52425000000001
359,2016-07-29,73.07175,,73.07175
359,2016-07-30,31.44158333333333,,31.44158333333333
359,2016-07-31,32.625750000000004,,32.625750000000004
359,2016-08-01,39.613416666666666,,39.613416666666666
359,2016-08-02,71.44866666666667,,71.44866666666667
359,2016-08-03,69.09254166666666,,69.09254166666666
359,2016-08-04,76.91283333333332,,76.91283333333332
359,2016-08-05,84.71554166666667,,84.71554166666667
359,2016-08-06,77.99616666666667,,77.99616666666667
359,2016-08-07,86.07295833333335,,86.07295833333335
359,2016-08-08,87.15495833333334,,87.15495833333334
359,2016-08-09,85.418,,85.418
359,2016-08-10,54.11454166666667,,54.11454166666667
359,2016-08-11,59.222,,59.222
359,2016-08-12,73.51041666666667,,73.51041666666667
359,2016-08-13,72.989,,72.989
359,2016-08-14,44.22204166666666,,44.22204166666666
359,2016-08-15,52.83979166666666,,52.83979166666666
359,2016-08-16,60.51566666666667,,60.51566666666667
359,2016-08-17,67.125,,67.125
359,2016-08-18,57.03895833333333,,57.03895833333333
359,2016-08-19,76.82220833333334,,76.82220833333334
359,2016-08-20,78.38079166666667,,78.38079166666667
359,2016-08-21,18.093708333333336,,18.093708333333336
359,2016-08-22,73.44204166666667,,73.44204166666667
359,2016-08-23,87.33529166666666,,87.33529166666666
359,2016-08-24,83.63345833333334,,83.63345833333334
359,2016-08-25,37.388,,37.388
359,2016-08-26,66.696,,66.696
359,2016-08-27,75.58270833333333,,75.58270833333333
359,2016-08-28,61.81758333333334,,61.81758333333334
359,2016-08-29,74.14316666666666,,74.14316666666666
359,2016-08-30,76.97979166666667,,76.97979166666667
359,2016-08-31,29.02725,,29.02725
359,2016-09-01,59.00445833333333,,59.00445833333333
359,2016-09-02,61.81429166666666,,61.81429166666666
359,2016-09-03,81.09433333333332,,81.09433333333332
359,2016-09-04,76.01558333333334,,76.01558333333334
359,2016-09-05,76.69983333333333,,76.69983333333333
359,2016-09-06,80.78254166666666,,80.78254166666666
359,2016-09-07,76.43291666666667,,76.43291666666667
359,2016-09-08,61.186791666666664,,61.186791666666664
359,2016-09-09,29.307208333333335,,29.307208333333335
359,2016-09-10,61.986291666666666,,61.986291666666666
359,2016-09-11,70.511,,70.511
359,2016-09-12,76.73304166666667,,76.73304166666667
359,2016-09-13,73.44137500000001,,73.44137500000001
359,2016-09-14,49.522124999999996,,49.522124999999996
359,2016-09-15,77.40354166666667,,77.40354166666667
359,2016-09-16,74.1985,,74.1985
359,2016-09-17,51.695166666666665,,51.695166666666665
359,2016-09-18,36.373,,36.373
359,2016-09-19,32.199125,,32.199125
359,2016-09-20,66.06895833333333,,66.06895833333333
359,2016-09-21,67.985,,67.985
359,2016-09-22,68.67383333333333,,68.67383333333333
359,2016-09-23,51.564375000000005,,51.564375000000005
359,2016-09-24,64.546125,,64.546125
359,2016-09-25,73.09958333333334,,73.09958333333334
359,2016-09-26,56.73170833333333,,56.73170833333333
359,2016-09-27,71.68941666666667,,71.68941666666667
359,2016-09-28,63.33329166666667,,63.33329166666667
359,2016-09-29,18.223166666666668,,18.223166666666668
359,2016-09-30,17.615750000000002,,17.615750000000002
359,2016-10-01,30.074749999999998,,30.074749999999998
359,2016-10-02,19.343,,19.343
359,2016-10-03,48.9335,,48.9335
359,2016-10-04,27.352208333333333,,27.352208333333333
359,2016-10-05,63.720666666666666,,63.720666666666666
359,2016-10-06,65.41083333333333,,65.41083333333333
359,2016-10-07,52.525375,,52.525375
359,2016-10-08,11.751916666666666,,11.751916666666666
359,2016-10-09,38.24675,,38.24675
359,2016-10-10,44.522124999999996,,44.522124999999996
359,2016-10-11,60.46279166666667,,60.46279166666667
359,2016-10-12,61.22579166666667,,61.22579166666667
359,2016-10-13,17.60804166666667,,17.60804166666667
359,2016-10-14,62.64775,,62.64775
359,2016-10-15,61.819583333333334,,61.819583333333334
359,2016-10-16,36.81308333333333,,36.81308333333333
359,2016-10-17,17.515541666666667,,17.515541666666667
359,2016-10-18,53.949875,,53.949875
359,2016-10-19,42.16529166666667,,42.16529166666667
359,2016-10-20,16.705041666666666,,16.705041666666666
359,2016-10-21,9.411375,,9.411375
359,2016-10-22,8.116541666666667,,8.116541666666667
359,2016-10-23,21.179,,21.179
359,2016-10-24,21.801333333333332,,21.801333333333332
359,2016-10-25,14.369124999999999,,14.369124999999999
359,2016-10-26,22.014375,,22.014375
359,2016-10-27,2.9616666666666664,,2.9616666666666664
359,2016-10-28,14.440875,,14.440875
359,2016-10-29,30.464291666666668,,30.464291666666668
359,2016-10-30,9.156291666666666,,9.156291666666666
359,2016-10-31,20.434291666666667,,20.434291666666667
359,2016-11-01,35.47075,,35.47075
359,2016-11-02,24.430958333333333,,24.430958333333333
359,2016-11-03,8.643875,,8.643875
359,2016-11-04,36.2025,,36.2025
359,2016-11-05,18.21741666666667,,18.21741666666667
359,2016-11-06,33.119166666666665,,33.119166666666665
359,2016-11-07,37.283208333333334,,37.283208333333334
359,2016-11-08,33.828833333333336,,33.828833333333336
359,2016-11-09,3.6257083333333333,,3.6257083333333333
359,2016-11-10,36.6765,,36.6765
359,2016-11-11,15.944708333333333,,15.944708333333333
359,2016-11-12,37.39391666666666,,37.39391666666666
359,2016-11-13,36.361958333333334,,36.361958333333334
359,2016-11-14,32.91216666666667,,32.91216666666667
359,2016-11-15,13.076833333333333,,13.076833333333333
359,2016-11-16,29.063791666666663,,29.063791666666663
359,2016-11-17,8.892583333333333,,8.892583333333333
359,2016-11-18,28.086,,28.086
359,2016-11-19,30.699875000000002,,30.699875000000002
359,2016-11-20,3.6029166666666668,,3.6029166666666668
359,2016-11-21,0.8041666666666667,,0.8041666666666667
359,2016-11-22,0.3652916666666666,,0.3652916666666666
359,2016-11-23,6.743541666666666,,6.743541666666666
359,2016-11-24,1.0091666666666665,,1.0091666666666665
359,2016-11-25,6.285875,,6.285875
359,2016-11-26,6.2826249999999995,,6.2826249999999995
359,2016-11-27,9.300833333333333,,9.300833333333333
359,2016-11-28,26.1765,,26.1765
359,2016-11-29,4.194083333333333,,4.194083333333333
359,2016-11-30,4.095041666666667,,4.095041666666667
359,2016-12-01,4.352291666666667,,4.352291666666667
359,2016-12-02,8.622416666666666,,8.622416666666666
359,2016-12-03,9.100916666666667,,9.100916666666667
359,2016-12-04,21.95125,,21.95125
359,2016-12-05,10.141333333333334,,10.141333333333334
359,2016-12-06,11.012375,,11.012375
359,2016-12-07,5.824958333333334,,5.824958333333334
359,2016-12-08,10.804083333333333,,10.804083333333333
359,2016-12-09,8.901083333333334,,8.901083333333334
359,2016-12-10,5.242875,,5.242875
359,2016-12-11,2.49875,,2.49875
359,2016-12-12,0.584,,0.584
359,2016-12-13,6.444,,6.444
359,2016-12-14,1.1445416666666668,,1.1445416666666668
359,2016-12-15,7.009125,,7.009125
359,2016-12-16,1.7285416666666666,,1.7285416666666666
359,2016-12-17,0.036458333333333336,,0.036458333333333336
359,2016-12-18,2.4205,,2.4205
359,2016-12-19,21.635416666666668,,21.635416666666668
359,2016-12-20,20.542333333333335,,20.542333333333335
359,2016-12-21,14.220708333333334,,14.220708333333334
359,2016-12-22,4.192166666666666,,4.192166666666666
359,2016-12-23,18.152375,,18.152375
359,2016-12-24,2.873791666666667,,2.873791666666667
359,2016-12-25,9.189458333333333,,9.189458333333333
359,2016-12-26,4.042375,,4.042375
359,2016-12-27,13.903625,,13.903625
359,2016-12-28,4.225291666666666,,4.225291666666666
359,2016-12-29,2.8847083333333337,,2.8847083333333337
359,2016-12-30,7.53575,,7.53575
359,2016-12-31,10.791041666666667,,10.791041666666667
359,2017-01-01,27.552791666666668,,27.552791666666668
359,2017-01-02,4.095083333333333,,4.095083333333333
359,2017-01-03,3.2161666666666666,,3.2161666666666666
359,2017-01-04,11.675208333333332,,11.675208333333332
359,2017-01-05,14.659625,,14.659625
359,2017-01-06,3.7370416666666664,,3.7370416666666664
359,2017-01-07,6.080166666666667,,6.080166666666667
359,2017-01-08,7.854208333333333,,7.854208333333333
359,2017-01-09,7.149125000000001,,7.149125000000001
359,2017-01-10,4.07425,,4.07425
359,2017-01-11,20.77479166666667,,20.77479166666667
359,2017-01-12,3.874416666666667,,3.874416666666667
359,2017-01-13,22.287125,,22.287125
359,2017-01-14,7.216166666666666,,7.216166666666666
359,2017-01-15,9.696041666666668,,9.696041666666668
359,2017-01-16,26.062583333333333,,26.062583333333333
359,2017-01-17,2.177875,,2.177875
359,2017-01-18,4.0092083333333335,,4.0092083333333335
359,2017-01-19,7.268916666666667,,7.268916666666667
359,2017-01-20,5.457791666666666,,5.457791666666666
359,2017-01-21,18.662791666666667,,18.662791666666667
359,2017-01-22,16.98966666666667,,16.98966666666667
359,2017-01-23,6.998125000000001,,6.998125000000001
359,2017-01-24,0.6927083333333334,,0.6927083333333334
359,2017-01-25,2.839916666666667,,2.839916666666667
359,2017-01-26,8.453875,,8.453875
359,2017-01-27,9.410208333333333,,9.410208333333333
359,2017-01-28,7.94925,,7.94925
359,2017-01-29,19.156958333333332,,19.156958333333332
359,2017-01-30,27.5065,,27.5065
359,2017-01-31,0.9765833333333332,,0.9765833333333332
359,2017-02-01,6.412791666666667,,6.412791666666667
359,2017-02-02,1.6302083333333333,,1.6302083333333333
359,2017-02-03,1.4043333333333334,,1.4043333333333334
359,2017-02-04,10.179125,,10.179125
359,2017-02-05,7.5696666666666665,,7.5696666666666665
359,2017-02-06,21.419416666666667,,21.419416666666667
359,2017-02-07,3.5,,3.5
359,2017-02-08,13.371125,,13.371125
359,2017-02-09,2.855625,,2.855625
359,2017-02-10,10.378333333333334,,10.378333333333334
359,2017-02-11,9.903791666666667,,9.903791666666667
359,2017-02-12,0.23058333333333333,,0.23058333333333333
359,2017-02-13,0.26829166666666665,,0.26829166666666665
359,2017-02-14,5.544291666666666,,5.544291666666666
359,2017-02-15,5.0175,,5.0175
359,2017-02-16,6.891375,,6.891375
359,2017-02-17,27.31975,,27.31975
359,2017-02-18,29.532625,,29.532625
359,2017-02-19,41.963,,41.963
359,2017-02-20,51.99029166666667,,51.99029166666667
359,2017-02-21,34.090624999999996,,34.090624999999996
359,2017-02-22,37.53004166666667,,37.53004166666667
359,2017-02-23,41.52558333333334,,41.52558333333334
359,2017-02-24,50.898625,,50.898625
359,2017-02-25,11.2065,,11.2065
359,2017-02-26,26.896041666666665,,26.896041666666665
359,2017-02-27,61.046375000000005,,61.046375000000005
359,2017-02-28,55.064,,55.064
359,2017-03-01,20.58875,,20.58875
359,2017-03-02,56.672041666666665,,56.672041666666665
359,2017-03-03,35.70908333333333,,35.70908333333333
359,2017-03-04,41.52225,,41.52225
359,2017-03-05,65.67133333333334,,65.67133333333334
359,2017-03-06,39.46675,,39.46675
359,2017-03-07,9.526708333333334,,9.526708333333334
359,2017-03-08,49.89183333333333,,49.89183333333333
359,2017-03-09,47.796875,,47.796875
359,2017-03-10,15.617083333333333,,15.617083333333333
359,2017-03-11,20.92575,,20.92575
359,2017-03-12,27.830708333333334,,27.830708333333334
359,2017-03-13,29.09183333333333,,29.09183333333333
359,2017-03-14,0.049666666666666665,,0.049666666666666665
359,2017-03-15,0.049666666666666665,,0.049666666666666665
359,2017-03-16,0.06716666666666667,,0.06716666666666667
359,2017-03-17,0.4427916666666667,,0.4427916666666667
359,2017-03-18,0.041666666666666664,,0.041666666666666664
359,2017-03-19,0.7272916666666666,,0.7272916666666666
359,2017-03-20,1.12375,,1.12375
359,2017-03-21,8.752583333333334,,8.752583333333334
359,2017-03-22,18.971958333333333,,18.971958333333333
359,2017-03-23,21.92895833333333,,21.92895833333333
359,2017-03-24,10.102208333333333,,10.102208333333333
359,2017-03-25,4.037708333333334,,4.037708333333334
359,2017-03-26,6.5,,6.5
359,2017-03-27,18.8835,,18.8835
359,2017-03-28,15.048208333333333,,15.048208333333333
359,2017-03-29,54.82570833333333,,54.82570833333333
359,2017-03-30,35.54629166666667,,35.54629166666667
359,2017-03-31,9.781875,,9.781875
359,2017-04-01,13.34175,,13.34175
359,2017-04-02,54.115874999999996,,54.115874999999996
359,2017-04-03,38.431041666666665,,38.431041666666665
359,2017-04-04,24.274833333333333,,24.274833333333333
359,2017-04-05,36.36270833333334,,36.36270833333334
359,2017-04-06,9.724,,9.724
359,2017-04-07,26.30079166666667,,26.30079166666667
359,2017-04-08,66.92645833333333,,66.92645833333333
359,2017-04-09,62.08075,,62.08075
359,2017-04-10,49.210208333333334,,49.210208333333334
359,2017-04-11,45.76891666666666,,45.76891666666666
359,2017-04-12,37.380291666666665,,37.380291666666665
359,2017-04-13,44.85225,,44.85225
359,2017-04-14,64.21683333333333,,64.21683333333333
359,2017-04-15,41.356791666666666,,41.356791666666666
359,2017-04-16,42.611291666666666,,42.611291666666666
359,2017-04-17,60.29754166666667,,60.29754166666667
359,2017-04-18,63.58858333333333,,63.58858333333333
359,2017-04-19,17.7305,,17.7305
359,2017-04-20,24.080125,,24.080125
359,2017-04-21,27.869208333333333,,27.869208333333333
359,2017-04-22,21.468833333333333,,21.468833333333333
359,2017-04-23,64.14458333333333,,64.14458333333333
359,2017-04-24,61.046875,,61.046875
359,2017-04-25,26.518291666666666,,26.518291666666666
359,2017-04-26,50.88741666666667,,50.88741666666667
359,2017-04-27,43.009125000000004,,43.009125000000004
359,2017-04-28,57.40116666666666,,57.40116666666666
359,2017-04-29,27.063916666666668,,27.063916666666668
359,2017-04-30,22.678458333333335,,22.678458333333335
359,2017-05-01,36.504583333333336,,36.504583333333336
359,2017-05-02,27.657041666666668,,27.657041666666668
359,2017-05-03,29.624291666666664,,29.624291666666664
359,2017-05-04,13.568333333333333,,13.568333333333333
359,2017-05-05,12.249375,,12.249375
359,2017-05-06,16.854125,,16.854125
359,2017-05-07,11.583958333333333,,11.583958333333333
359,2017-05-08,22.014958333333336,,22.014958333333336
359,2017-05-09,27.686125,,27.686125
359,2017-05-10,32.53183333333333,,32.53183333333333
359,2017-05-11,28.562458333333336,,28.562458333333336
359,2017-05-12,24.344333333333335,,24.344333333333335
359,2017-05-13,8.175125,,8.175125
359,2017-05-14,16.607375,,16.607375
359,2017-05-15,21.460916666666666,,21.460916666666666
359,2017-05-16,22.253291666666666,,22.253291666666666
359,2017-05-17,34.706375,,34.706375
359,2017-05-18,31.387958333333334,,31.387958333333334
359,2017-05-19,31.586541666666665,,31.586541666666665
359,2017-05-20,28.400375,,28.400375
359,2017-05-21,18.136666666666667,,18.136666666666667
359,2017-05-22,14.957666666666666,,14.957666666666666
359,2017-05-23,30.197916666666668,,30.197916666666668
359,2017-05-24,34.19404166666667,,34.19404166666667
359,2017-05-25,13.629541666666666,,13.629541666666666
359,2017-05-26,17.405583333333333,,17.405583333333333
359,2017-05-27,13.529958333333333,,13.529958333333333
359,2017-05-28,20.908833333333334,,20.908833333333334
359,2017-05-29,17.568416666666668,,17.568416666666668
359,2017-05-30,12.028583333333332,,12.028583333333332
359,2017-05-31,28.099,,28.099
359,2017-06-01,28.921833333333336,,28.921833333333336
359,2017-06-02,30.818375,,30.818375
359,2017-06-03,34.16529166666667,,34.16529166666667
359,2017-06-04,7.203749999999999,,7.203749999999999
359,2017-06-05,13.533208333333334,,13.533208333333334
359,2017-06-06,15.124333333333333,,15.124333333333333
359,2017-06-07,30.75975,,30.75975
359,2017-06-08,36.365833333333335,,36.365833333333335
359,2017-06-09,75.05795833333333,,75.05795833333333
359,2017-06-10,81.22929166666667,,81.22929166666667
359,2017-06-11,105.33533333333332,,105.33533333333332
359,2017-06-12,100.34258333333334,,100.34258333333334
359,2017-06-13,79.92004166666666,,79.92004166666666
359,2017-06-14,106.23450000000001,,106.23450000000001
359,2017-06-15,52.071041666666666,,52.071041666666666
359,2017-06-16,32.29570833333333,,32.29570833333333
359,2017-06-17,85.09975,,85.09975
359,2017-06-18,92.06520833333333,,92.06520833333333
359,2017-06-19,48.48970833333333,,48.48970833333333
359,2017-06-20,90.70654166666667,,90.70654166666667
359,2017-06-21,91.77345833333334,,91.77345833333334
359,2017-06-22,91.94470833333332,,91.94470833333332
359,2017-06-23,48.94929166666666,,48.94929166666666
359,2017-06-24,93.43241666666667,,93.43241666666667
359,2017-06-25,89.25983333333333,,89.25983333333333
359,2017-06-26,82.48970833333333,,82.48970833333333
359,2017-06-27,71.56845833333334,,71.56845833333334
359,2017-06-28,97.97470833333334,,97.97470833333334
359,2017-06-29,79.87125,,79.87125
359,2017-06-30,73.28716666666666,,73.28716666666666
359,2017-07-01,55.02495833333333,,55.02495833333333
359,2017-07-02,86.0105,,86.0105
359,2017-07-03,86.46895833333333,,86.46895833333333
359,2017-07-04,86.28729166666666,,86.28729166666666
359,2017-07-05,89.102375,,89.102375
359,2017-07-06,52.01191666666667,,52.01191666666667
359,2017-07-07,73.52675,,73.52675
359,2017-07-08,75.14854166666667,,75.14854166666667
359,2017-07-09,90.887375,,90.887375
359,2017-07-10,76.45,,76.45
359,2017-07-11,66.10425,,66.10425
359,2017-07-12,44.81529166666667,,44.81529166666667
359,2017-07-13,41.68504166666667,,41.68504166666667
359,2017-07-14,55.63358333333333,,55.63358333333333
359,2017-07-15,59.31066666666666,,59.31066666666666
359,2017-07-16,91.54183333333333,,91.54183333333333
359,2017-07-17,58.428374999999996,,58.428374999999996
359,2017-07-18,98.958375,,98.958375
359,2017-07-19,96.06129166666666,,96.06129166666666
359,2017-07-20,63.47608333333333,,63.47608333333333
359,2017-07-21,83.13679166666667,,83.13679166666667
359,2017-07-22,49.223375000000004,,49.223375000000004
359,2017-07-23,55.660333333333334,,55.660333333333334
359,2017-07-24,47.02291666666667,,47.02291666666667
359,2017-07-25,40.79891666666666,,40.79891666666666
359,2017-07-26,55.276875,,55.276875
359,2017-07-27,41.75925,,41.75925
359,2017-07-28,60.99033333333333,,60.99033333333333
359,2017-07-29,92.98320833333334,,92.98320833333334
359,2017-07-30,100.80745833333333,,100.80745833333333
359,2017-07-31,98.0625,,98.0625
359,2017-08-01,91.46433333333333,,91.46433333333333
359,2017-08-02,78.68183333333333,,78.68183333333333
359,2017-08-03,84.05024999999999,,84.05024999999999
359,2017-08-04,68.2175,,68.2175
359,2017-08-05,71.69541666666667,,71.69541666666667
359,2017-08-06,86.75533333333334,,86.75533333333334
359,2017-08-07,26.528791666666667,,26.528791666666667
359,2017-08-08,80.02425000000001,,80.02425000000001
359,2017-08-09,91.52091666666666,,91.52091666666666
359,2017-08-10,82.77033333333334,,82.77033333333334
359,2017-08-11,50.38741666666667,,50.38741666666667
359,2017-08-12,67.52366666666667,,67.52366666666667
359,2017-08-13,72.50983333333333,,72.50983333333333
359,2017-08-14,70.944125,,70.944125
359,2017-08-15,67.10495833333333,,67.10495833333333
359,2017-08-16,66.21758333333334,,66.21758333333334
359,2017-08-17,82.64329166666667,,82.64329166666667
359,2017-08-18,33.979958333333336,,33.979958333333336
359,2017-08-19,77.34191666666666,,77.34191666666666
359,2017-08-20,83.19283333333333,,83.19283333333333
359,2017-08-21,63.12958333333333,,63.12958333333333
359,2017-08-22,73.26712500000001,,73.26712500000001
359,2017-08-23,74.69675,,74.69675
359,2017-08-24,74.61279166666667,,74.61279166666667
359,2017-08-25,71.03008333333334,,71.03008333333334
359,2017-08-26,75.44475,,75.44475
359,2017-08-27,82.25337499999999,,82.25337499999999
359,2017-08-28,64.868625,,64.868625
359,2017-08-29,38.908375,,38.908375
359,2017-08-30,74.99429166666667,,74.99429166666667
359,2017-08-31,44.98054166666666,,44.98054166666666
359,2017-09-01,81.58929166666667,,81.58929166666667
359,2017-09-02,54.78270833333334,,54.78270833333334
359,2017-09-03,19.192249999999998,,19.192249999999998
359,2017-09-04,84.76120833333333,,84.76120833333333
359,2017-09-05,24.720916666666668,,24.720916666666668
359,2017-09-06,16.323625,,16.323625
359,2017-09-07,64.426625,,64.426625
359,2017-09-08,55.63558333333333,,55.63558333333333
359,2017-09-09,34.30554166666666,,34.30554166666666
359,2017-09-10,69.97733333333333,,69.97733333333333
359,2017-09-11,77.381625,,77.381625
359,2017-09-12,69.43370833333334,,69.43370833333334
359,2017-09-13,54.11600000000001,,54.11600000000001
359,2017-09-14,32.90904166666667,,32.90904166666667
359,2017-09-15,63.20195833333333,,63.20195833333333
359,2017-09-16,64.312625,,64.312625
359,2017-09-17,69.649875,,69.649875
359,2017-09-18,71.06525,,71.06525
359,2017-09-19,72.531375,,72.531375
359,2017-09-20,66.67404166666667,,66.67404166666667
359,2017-09-21,60.44479166666667,,60.44479166666667
359,2017-09-22,62.16425,,62.16425
359,2017-09-23,70.04899999999999,,70.04899999999999
359,2017-09-24,69.43179166666667,,69.43179166666667
359,2017-09-25,63.68116666666666,,63.68116666666666
359,2017-09-26,62.324333333333335,,62.324333333333335
359,2017-09-27,64.38875,,64.38875
359,2017-09-28,33.48716666666667,,33.48716666666667
359,2017-09-29,42.72808333333333,,42.72808333333333
359,2017-09-30,12.6935,,12.6935
359,2017-10-01,70.97858333333333,,70.97858333333333
359,2017-10-02,69.51770833333333,,69.51770833333333
359,2017-10-03,71.97475,,71.97475
359,2017-10-04,67.90050000000001,,67.90050000000001
359,2017-10-05,44.75270833333334,,44.75270833333334
359,2017-10-06,34.817791666666665,,34.817791666666665
359,2017-10-07,34.139541666666666,,34.139541666666666
359,2017-10-08,32.316583333333334,,32.316583333333334
359,2017-10-09,31.65970833333333,,31.65970833333333
359,2017-10-10,49.02229166666667,,49.02229166666667
359,2017-10-11,20.996916666666667,,20.996916666666667
359,2017-10-12,23.644000000000002,,23.644000000000002
359,2017-10-13,27.379666666666665,,27.379666666666665
359,2017-10-14,20.583583333333333,,20.583583333333333
359,2017-10-15,57.69083333333333,,57.69083333333333
359,2017-10-16,28.934375,,28.934375
359,2017-10-17,63.766333333333336,,63.766333333333336
359,2017-10-18,60.38491666666667,,60.38491666666667
359,2017-10-19,61.44412500000001,,61.44412500000001
359,2017-10-20,60.65254166666667,,60.65254166666667
359,2017-10-21,49.7065,,49.7065
359,2017-10-22,42.734541666666665,,42.734541666666665
359,2017-10-23,24.332875,,24.332875
359,2017-10-24,33.249541666666666,,33.249541666666666
359,2017-10-25,52.45458333333334,,52.45458333333334
359,2017-10-26,15.127833333333333,,15.127833333333333
359,2017-10-27,52.643458333333335,,52.643458333333335
359,2017-10-28,45.205958333333335,,45.205958333333335
359,2017-10-29,3.2918333333333334,,3.2918333333333334
359,2017-10-30,23.65908333333333,,23.65908333333333
359,2017-10-31,45.58025,,45.58025
359,2017-11-01,6.436333333333334,,6.436333333333334
359,2017-11-02,22.964375,,22.964375
359,2017-11-03,6.2105,,6.2105
359,2017-11-04,35.23133333333333,,35.23133333333333
359,2017-11-05,10.09975,,10.09975
359,2017-11-06,5.294375,,5.294375
359,2017-11-07,11.271666666666667,,11.271666666666667
359,2017-11-08,50.558125,,50.558125
359,2017-11-09,15.668833333333334,,15.668833333333334
359,2017-11-10,28.950666666666667,,28.950666666666667
359,2017-11-11,48.89204166666667,,48.89204166666667
359,2017-11-12,42.06979166666667,,42.06979166666667